Location: Unspecified
(0.0000°N, 0.0000°E)
Time: 09:52:11
(UTC+00:00)

deb Blok Kosmos - Visible Passes

Search period start: 11 November 2024 00:00
Search period end: 21 November 2024 00:00
Orbit: 1376 x 1613 km, 56.1° (Epoch: 10 November)

Date Brightness Start Highest point End Pass type
(mag) Time Alt. Az. Time Alt. Az. Time Alt. Az.
11 Nov ? 02:18:03 30° SSE 02:18:03 30° SSE 02:21:53 10° SSE visible
11 Nov ? 04:13:57 11° WSW 04:13:59 11° WSW 04:15:53 10° SW visible
12 Nov ? 01:28:57 15° SE 01:28:57 15° SE 01:30:11 10° SE visible
12 Nov ? 03:24:51 20° SW 03:24:51 20° SW 03:28:49 10° S visible
13 Nov ? 02:35:41 23° S 02:35:41 23° S 02:38:53 10° S visible
14 Nov ? 01:46:28 17° SSE 01:46:28 17° SSE 01:48:03 10° SSE visible
15 Nov ? 02:53:04 13° SSW 02:53:04 13° SSW 02:54:25 10° SSW visible
16 Nov ? 02:03:44 14° S 02:03:44 14° S 02:04:49 10° S visible
